• In Uzbekistan
  • List of Countries
  • For 7 days
  • Water Temperature
  • Satellite Maps
  • Weather Map
  • Weather Widgets
  • user-avatar
    Login

    Hourly Weather Hawalii

    Today, 19 September, Wednesday

    Time Temperature Precipitation Wind Pressure Humidity
    00:00 +36°C° 0 mm 2 mps 752 mmHg 40%
    01:00 +36°C° 0 mm 2 mps 752 mmHg 42%
    02:00 +35°C° 0 mm 2 mps 752 mmHg 43%
    03:00 +35°C° 0 mm 3 mps 752 mmHg 45%
    04:00 +35°C° 0 mm 3 mps 752 mmHg 44%
    05:00 +35°C° 0 mm 3 mps 752 mmHg 43%
    06:00 +35°C° 0 mm 3 mps 752 mmHg 43%
    07:00 +38°C° 0 mm 3 mps 752 mmHg 35%
    08:00 +40°C° 0 mm 3 mps 753 mmHg 27%
    09:00 +43°C° 0 mm 2 mps 753 mmHg 20%
    10:00 +45°C° 0 mm 3 mps 753 mmHg 18%
    11:00 +47°C° 0 mm 3 mps 752 mmHg 17%
    12:00 +48°C° 0 mm 3 mps 752 mmHg 15%
    13:00 +49°C° 0 mm 4 mps 752 mmHg 16%
    14:00 +49°C° 0 mm 4 mps 751 mmHg 18%
    15:00 +49°C° 0 mm 5 mps 751 mmHg 19%
    16:00 +46°C° 0 mm 5 mps 751 mmHg 28%
    17:00 +43°C° 0 mm 5 mps 751 mmHg 37%
    18:00 +41°C° 0 mm 5 mps 751 mmHg 46%
    19:00 +40°C° 0 mm 4 mps 751 mmHg 47%
    20:00 +38°C° 0 mm 4 mps 751 mmHg 49%
    21:00 +37°C° 0 mm 4 mps 752 mmHg 51%
    22:00 +37°C° 0 mm 4 mps 752 mmHg 51%
    23:00 +37°C° 0 mm 4 mps 752 mmHg 50%

    Tomorrow, 20 September, Thursday

    Time Temperature Precipitation Wind Pressure Humidity
    00:00 +36°C° 0 mm 4 mps 752 mmHg 49%
    01:00 +36°C° 0 mm 3 mps 752 mmHg 47%
    02:00 +36°C° 0 mm 3 mps 751 mmHg 44%
    03:00 +36°C° 0 mm 3 mps 751 mmHg 42%
    04:00 +36°C° 0 mm 3 mps 752 mmHg 39%
    05:00 +36°C° 0 mm 2 mps 752 mmHg 36%
    06:00 +36°C° 0 mm 2 mps 752 mmHg 34%
    07:00 +39°C° 0 mm 2 mps 752 mmHg 28%
    08:00 +41°C° 0 mm 2 mps 753 mmHg 23%
    09:00 +45°C° 0 mm 2 mps 753 mmHg 17%
    10:00 +46°C° 0 mm 2 mps 753 mmHg 16%
    11:00 +47°C° 0 mm 2 mps 753 mmHg 14%
    12:00 +48°C° 0 mm 3 mps 753 mmHg 12%
    13:00 +48°C° 0 mm 3 mps 752 mmHg 13%
    14:00 +49°C° 0 mm 4 mps 751 mmHg 14%
    15:00 +49°C° 0 mm 4 mps 751 mmHg 15%
    16:00 +47°C° 0 mm 4 mps 751 mmHg 20%
    17:00 +44°C° 0 mm 4 mps 750 mmHg 26%
    18:00 +42°C° 0 mm 4 mps 750 mmHg 31%
    19:00 +41°C° 0 mm 4 mps 751 mmHg 33%
    20:00 +40°C° 0 mm 4 mps 751 mmHg 36%
    21:00 +38°C° 0 mm 4 mps 752 mmHg 38%
    22:00 +38°C° 0 mm 3 mps 752 mmHg 36%
    23:00 +38°C° 0 mm 3 mps 752 mmHg 34%

    Day after tomorrow, 21 September, Friday

    Time Temperature Precipitation Wind Pressure Humidity
    00:00 +38°C° 0 mm 3 mps 752 mmHg 33%
    01:00 +37°C° 0 mm 3 mps 752 mmHg 32%
    02:00 +37°C° 0 mm 3 mps 751 mmHg 31%
    03:00 +37°C° 0 mm 3 mps 751 mmHg 30%
    04:00 +36°C° 0 mm 3 mps 752 mmHg 29%
    05:00 +36°C° 0 mm 2 mps 752 mmHg 28%
    06:00 +36°C° 0 mm 2 mps 752 mmHg 27%
    07:00 +39°C° 0 mm 2 mps 753 mmHg 23%
    08:00 +41°C° 0 mm 2 mps 753 mmHg 18%
    09:00 +45°C° 0 mm 3 mps 754 mmHg 14%
    10:00 +46°C° 0 mm 2 mps 753 mmHg 12%
    11:00 +48°C° 0 mm 2 mps 753 mmHg 10%
    12:00 +49°C° 0 mm 2 mps 753 mmHg 8%
    13:00 +50°C° 0 mm 3 mps 753 mmHg 8%
    14:00 +50°C° 0 mm 3 mps 752 mmHg 9%
    15:00 +50°C° 0 mm 4 mps 752 mmHg 9%
    16:00 +49°C° 0 mm 4 mps 752 mmHg 12%
    17:00 +47°C° 0 mm 4 mps 752 mmHg 14%
    18:00 +44°C° 0 mm 3 mps 752 mmHg 17%
    19:00 +43°C° 0 mm 3 mps 752 mmHg 18%
    20:00 +40°C° 0 mm 2 mps 753 mmHg 19%
    21:00 +39°C° 0 mm 2 mps 753 mmHg 20%
    22:00 +39°C° 0 mm 2 mps 753 mmHg 20%
    23:00 +38°C° 0 mm 2 mps 753 mmHg 19%

    22 September, Saturday

    Time Temperature Precipitation Wind Pressure Humidity
    00:00 +36°C° 0 mm 1 mps 753 mmHg 19%
    01:00 +36°C° 0 mm 1 mps 753 mmHg 19%
    02:00 +35°C° 0 mm 1 mps 753 mmHg 19%
    03:00 +34°C° 0 mm 1 mps 753 mmHg 19%
    04:00 +35°C° 0 mm 1 mps 753 mmHg 18%
    05:00 +36°C° 0 mm 2 mps 753 mmHg 18%
    06:00 +36°C° 0 mm 2 mps 754 mmHg 18%
    07:00 +39°C° 0 mm 2 mps 754 mmHg 15%
    08:00 +43°C° 0 mm 3 mps 754 mmHg 13%
    09:00 +45°C° 0 mm 4 mps 755 mmHg 10%
    10:00 +47°C° 0 mm 3 mps 754 mmHg 9%
    11:00 +48°C° 0 mm 2 mps 754 mmHg 8%
    12:00 +49°C° 0 mm 2 mps 754 mmHg 7%
    13:00 +49°C° 0 mm 2 mps 753 mmHg 7%
    14:00 +51°C° 0 mm 3 mps 753 mmHg 7%
    15:00 +51°C° 0 mm 3 mps 752 mmHg 7%
    16:00 +48°C° 0 mm 3 mps 752 mmHg 8%
    17:00 +46°C° 0 mm 3 mps 752 mmHg 9%
    18:00 +43°C° 0 mm 2 mps 752 mmHg 11%
    19:00 +42°C° 0 mm 2 mps 753 mmHg 12%
    20:00 +40°C° 0 mm 2 mps 753 mmHg 13%
    21:00 +39°C° 0 mm 2 mps 753 mmHg 14%
    22:00 +39°C° 0 mm 2 mps 753 mmHg 15%
    23:00 +38°C° 0 mm 3 mps 753 mmHg 17%

    23 September, Sunday

    Time Temperature Precipitation Wind Pressure Humidity
    00:00 +38°C° 0 mm 3 mps 753 mmHg 18%
    01:00 +38°C° 0 mm 3 mps 753 mmHg 19%
    02:00 +37°C° 0 mm 3 mps 753 mmHg 19%
    03:00 +37°C° 0 mm 3 mps 753 mmHg 19%
    04:00 +37°C° 0 mm 3 mps 753 mmHg 18%
    05:00 +37°C° 0 mm 3 mps 753 mmHg 17%
    06:00 +37°C° 0 mm 2 mps 754 mmHg 17%
    07:00 +39°C° 0 mm 2 mps 754 mmHg 14%
    08:00 +42°C° 0 mm 2 mps 754 mmHg 12%
    09:00 +46°C° 0 mm 2 mps 755 mmHg 9%
    10:00 +47°C° 0 mm 2 mps 754 mmHg 9%
    11:00 +47°C° 0 mm 1 mps 754 mmHg 8%
    12:00 +48°C° 0 mm 1 mps 754 mmHg 7%
    13:00 +49°C° 0 mm 2 mps 753 mmHg 8%
    14:00 +50°C° 0 mm 3 mps 752 mmHg 9%
    15:00 +50°C° 0 mm 4 mps 752 mmHg 9%
    16:00 +48°C° 0 mm 5 mps 752 mmHg 14%
    17:00 +46°C° 0 mm 5 mps 752 mmHg 18%
    18:00 +43°C° 0 mm 5 mps 752 mmHg 23%
    19:00 +42°C° 0 mm 5 mps 752 mmHg 24%
    20:00 +41°C° 0 mm 4 mps 752 mmHg 26%
    21:00 +40°C° 0 mm 4 mps 753 mmHg 27%
    22:00 +40°C° 0 mm 4 mps 752 mmHg 26%
    23:00 +40°C° 0 mm 4 mps 752 mmHg 24%

    24 September, Monday

    Time Temperature Precipitation Wind Pressure Humidity
    00:00 +38°C° 0 mm 4 mps 752 mmHg 23%
    01:00 +38°C° 0 mm 3 mps 752 mmHg 22%
    02:00 +38°C° 0 mm 3 mps 752 mmHg 22%
    03:00 +37°C° 0 mm 3 mps 752 mmHg 22%
    04:00 +37°C° 0 mm 3 mps 752 mmHg 22%
    05:00 +37°C° 0 mm 3 mps 752 mmHg 22%
    06:00 +37°C° 0 mm 3 mps 752 mmHg 22%
    07:00 +39°C° 0 mm 3 mps 753 mmHg 18%
    08:00 +42°C° 0 mm 2 mps 753 mmHg 15%
    09:00 +45°C° 0 mm 2 mps 753 mmHg 11%
    10:00 +46°C° 0 mm 2 mps 753 mmHg 10%
    11:00 +48°C° 0 mm 2 mps 752 mmHg 9%
    12:00 +49°C° 0 mm 2 mps 752 mmHg 8%
    13:00 +50°C° 0 mm 3 mps 751 mmHg 8%
    14:00 +51°C° 0 mm 3 mps 751 mmHg 9%
    15:00 +51°C° 0 mm 4 mps 750 mmHg 9%
    16:00 +49°C° 0 mm 4 mps 750 mmHg 12%
    17:00 +47°C° 0 mm 4 mps 750 mmHg 16%
    18:00 +44°C° 0 mm 4 mps 750 mmHg 19%
    19:00 +43°C° 0 mm 4 mps 751 mmHg 20%
    20:00 +42°C° 0 mm 4 mps 751 mmHg 21%
    21:00 +41°C° 0 mm 4 mps 751 mmHg 22%
    22:00 +41°C° 0 mm 4 mps 751 mmHg 21%
    23:00 +41°C° 0 mm 4 mps 751 mmHg 20%
    Show more